Regional Weather Roundup
Issued by NWS

Home | Current Version | Previous Version | Graphics & Text | Print | Product List | Glossary On
Versions: 1 2 3 4 5 6 7 8 9 10 11 12 13 14 15 16 17 18 19 20 21 22 23 24 25 26 27 28 29 30 31 32 33 34 35 36 37 38 39 40 41 42 43 44 45 46 47 48 49 50
000
ASUS43 KTOP 240959
RWRKS

WEATHER ROUNDUP FOR KANSAS
NATIONAL WEATHER SERVICE GOODLAND KS
500 AM CDT THU MAY 24 2018

NOTE:  "FAIR" INDICATES FEW OR NO CLOUDS BELOW 12,000 FEET WITH NO
SIGNIFICANT WEATHER AND/OR OBSTRUCTIONS TO VISIBILITY.

KSZ001>006-013>018-027>032-041>047-241100-
NORTHWEST KANSAS

CITY           SKY/WX    TMP DP  RH WIND       PRES   REMARKS
GOODLAND       CLOUDY    61  54  77 S22G30    29.96F
HAYS           CLOUDY    63  59  87 S7        30.01F
HILL CITY      PTCLDY    65  58  78 CALM      30.00S
RUSSELL        PTCLDY    64  62  93 S9        30.00S
$$

KSZ061>065-074>080-084>089-241100-
SOUTHWEST KANSAS

CITY           SKY/WX    TMP DP  RH WIND       PRES   REMARKS
DODGE CITY     CLOUDY    67  54  63 S16G26    30.02F
GARDEN CITY    MOCLDY    65  53  65 S16       30.00F
GREAT BEND     CLOUDY    63  60  90 S9        30.02F
LIBERAL        CLOUDY    73  50  44 SE12      30.02R
$$

KSZ066>073-081>083-090>101-241100-
SOUTHEAST KANSAS

CITY           SKY/WX    TMP DP  RH WIND       PRES   REMARKS
CHANUTE        CLOUDY    67  67 100 SE6       30.08R
COFFEYVILLE    CLOUDY    68  66  93 E3        30.06S
HUTCHINSON     CLOUDY    70  60  70 S5        30.01R
MEDICINE LODGE   N/A     67  60  78 SW13G23   30.00F
NEWTON         CLOUDY    66  62  87 SE6       30.04R
PARSONS        CLOUDY    67  66  97 CALM      30.09R
WICHITA INTL   CLOUDY    69  62  78 SE9       30.01S
WICHITA JABRA  CLOUDY    68  66  93 S9        30.02S
WICHITA MCCONL CLOUDY    69  63  81 S9          N/A
WINFIELD       MOCLDY    68  67  96 S10       30.05S
$$

KSZ007>012-019>026-033>040-048>060-102>105-241100-
NORTHEAST KANSAS

CITY           SKY/WX    TMP DP  RH WIND       PRES   REMARKS
CONCORDIA      CLOUDY    67  64  90 S8        30.02S
EMPORIA        CLOUDY    67  65  93 SE6       30.05F
LAWRENCE       CLOUDY    66  66 100 SE5       30.08R
MANHATTAN      CLOUDY    68  65  90 S5        30.03F
OLATHE IND     CLOUDY    67  65  93 S7        30.10R
OLATHE EXE     CLOUDY    64  64 100 SE8       30.10R
SALINA         CLOUDY    70  60  70 SE5       30.02S
TOPEKA BILLARD CLOUDY    70  69  97 SE3       30.06S
TOPEKA FORBES  MOCLDY    70  68  93 SE6       30.07S
$$




USA.gov is the U.S. government's official web portal to all federal, state and local government web resources and services.